Location: Kumla
(59.1265°N, 15.1401°E)
Time: 20:54:40
(UTC+01:00)

Vanguard 1 Rocket - Pass Details

Date: 06 December 2023
Orbit: 654 x 4218 km, 34.3° (Epoch: 21 February)

Event Time Altitude Azimuth Distance (km) Brightness Sun altitude
Rises 02:14:20 0° 182° (S) 8,375 - -45.3°
Exits shadow 02:15:09 - 181° (S) 8,269 12.0 -45.2°
Reaches altitude 10° 02:27:40 10° 156° (SSE) 6,755 11.7 -44.0°
Maximum altitude 02:32:17 11° 143° (SE) 6,328 11.6 -43.5°
Drops below altitude 10° 02:36:29 10° 131° (SE) 6,068 11.7 -43.0°
Sets 02:45:38 0° 101° (ESE) 6,132 12.1 -42.0°
